DW5707 Weather Reports


time (UTC)temp
C
wind
direction
speed
KPH
gust
KPH
rain 1hr
cm
rain 24hr
cm
rain mn
cm
humidity
%
barometer
mb
20260510050710 10 345 0.0 0.0 0.00 0.13 0.00 95 1010.9
20260510050219 10 345 0.0 3.2 0.00 0.13 0.00 95 1011.0
20260510045203 10 345 0.0 0.0 0.00 0.13 0.00 95 1011.1
20260510044702 10 345 0.0 1.6 0.00 0.13 0.00 95 1011.1
20260510044204 10 345 0.0 1.6 0.00 0.13 0.00 95 1011.1
20260510043703 10 345 0.0 0.0 0.00 0.13 0.00 95 1011.1
20260510043201 10 345 0.0 0.0 0.00 0.13 0.00 95 1011.1
20260510042703 10 345 0.0 0.0 0.00 0.13 0.00 95 1011.2
20260510042201 10 345 0.0 0.0 0.00 0.13 0.00 94 1011.1
20260510041700 10 345 0.0 0.0 0.00 0.13 0.00 95 1011.1
20260510041201 10 345 0.0 3.2 0.00 0.13 0.00 94 1011.1
20260510040659 10 345 1.6 4.8 0.00 0.13 0.00 94 1011.1
20260510035155 10 345 0.0 3.2 0.00 0.13 0.13 95 1011.2
20260510034655 10 345 0.0 0.0 0.00 0.13 0.13 94 1011.2
20260510034153 10 345 0.0 0.0 0.00 0.13 0.13 94 1011.2
20260510033656 10 345 0.0 1.6 0.00 0.13 0.13 94 1011.2
20260510033156 10 345 0.0 1.6 0.00 0.13 0.13 94 1011.2
20260510032654 10 345 0.0 1.6 0.00 0.13 0.13 93 1011.2
20260510031154 10 345 0.0 1.6 0.00 0.13 0.13 92 1011.2
20260510030652 11 345 0.0 1.6 0.00 0.13 0.13 92 1011.3
20260510025649 11 345 1.6 4.8 0.00 0.13 0.13 92 1011.2
20260510025149 11 345 1.6 4.8 0.00 0.13 0.13 91 1011.2
20260510024647 11 345 3.2 4.8 0.00 0.13 0.13 92 1011.1
20260510023147 11 100 0.0 4.8 0.00 0.13 0.13 90 1011.0
20260510022652 12 345 0.0 3.2 0.00 0.13 0.13 90 1011.0
20260510022155 12 345 1.6 3.2 0.00 0.13 0.13 90 1010.9
20260510021652 12 345 1.6 4.8 0.00 0.13 0.13 90 1010.8
20260510020648 12 345 3.2 8.0 0.00 0.13 0.13 91 1010.8
20260510020149 12 345 3.2 8.0 0.00 0.13 0.13 90 1010.8
20260510015646 12 345 3.2 8.0 0.00 0.13 0.13 91 1010.8
20260510015149 12 345 3.2 6.4 0.00 0.13 0.13 91 1010.7
20260510014639 12 345 3.2 6.4 0.00 0.13 0.13 91 1010.7
20260510013631 11 345 1.6 3.2 0.00 0.13 0.13 91 1010.6
20260510012632 12 345 0.0 1.6 0.00 0.13 0.13 89 1010.6
20260510012133 12 345 0.0 3.2 0.00 0.13 0.13 89 1010.5
20260510011631 12 345 1.6 4.8 0.00 0.13 0.13 90 1010.4
20260510011131 12 345 1.6 4.8 0.00 0.13 0.13 90 1010.4
20260510010631 12 345 1.6 3.2 0.00 0.13 0.13 89 1010.2
20260510010130 12 128 1.6 6.4 0.00 0.13 0.13 89 1010.1
20260510005640 12 128 1.6 6.4 0.00 0.13 0.13 89 1010.0
20260510004636 12 345 0.0 3.2 0.00 0.13 0.13 88 1009.9
20260510004131 13 127 0.0 0.0 0.00 0.13 0.13 87 1009.9
20260510003133 13 127 1.6 4.8 0.00 0.13 0.13 86 1009.9
20260510002119 13 125 1.6 3.2 0.00 0.13 0.13 86 1009.7
20260510001620 14 125 1.6 3.2 0.00 0.13 0.13 85 1009.8
20260510001120 14 345 1.6 3.2 0.00 0.13 0.13 85 1009.8
20260510000622 14 125 3.2 8.0 0.00 0.13 0.13 84 1009.8
20260510000121 14 125 3.2 8.0 0.00 0.13 0.13 84 1009.8
20260509235623 15 120 3.2 6.4 0.00 0.13 0.13 83 1009.8
20260509235119 15 136 3.2 8.0 0.00 0.13 0.13 83 1009.8
20260509234619 15 345 3.2 8.0 0.00 0.13 0.13 82 1009.7
20260509234120 15 345 3.2 8.0 0.00 0.13 0.13 81 1009.7
20260509233620 15 345 3.2 8.0 0.00 0.13 0.13 81 1009.7
20260509233123 15 137 1.6 8.0 0.00 0.13 0.13 81 1009.8
20260509232623 15 345 3.2 6.4 0.00 0.13 0.13 81 1009.8
20260509232124 15 135 1.6 6.4 0.00 0.13 0.13 80 1009.7
20260509231620 16 345 1.6 4.8 0.00 0.13 0.13 79 1009.7
20260509230122 16 123 1.6 4.8 0.00 0.13 0.13 78 1009.6
20260509225612 16 211 0.0 4.8 0.00 0.13 0.13 79 1009.7
20260509225111 16 211 1.6 4.8 0.00 0.13 0.13 78 1009.7
20260509224613 16 116 1.6 4.8 0.00 0.13 0.13 77 1009.7
20260509224110 16 138 3.2 8.0 0.00 0.13 0.13 77 1009.8
20260509223609 16 138 3.2 9.7 0.00 0.13 0.13 76 1009.8
20260509223111 16 190 1.6 9.7 0.00 0.13 0.13 76 1009.7
20260509221607 16 62 1.6 3.2 0.00 0.13 0.13 76 1009.6
20260509221107 16 61 0.0 3.2 0.00 0.13 0.13 76 1009.7
20260509220607 16 63 0.0 3.2 0.00 0.13 0.13 75 1009.7
20260509215605 16 154 1.6 6.4 0.00 0.13 0.13 76 1009.8
20260509215100 16 133 1.6 4.8 0.00 0.13 0.13 75 1009.8
20260509214600 16 129 0.0 3.2 0.00 0.13 0.13 78 1009.8
20260509214058 16 129 0.0 1.6 0.00 0.13 0.13 76 1009.9
20260509213053 16 129 0.0 0.0 0.00 0.13 0.13 79 1010.0
20260509212552 16 129 0.0 0.0 0.00 0.13 0.13 80 1009.9
20260509212050 16 129 0.0 0.0 0.00 0.13 0.13 79 1009.9
20260509211551 16 129 0.0 0.0 0.00 0.13 0.13 77 1010.0
20260509211050 16 129 0.0 1.6 0.00 0.13 0.13 77 1010.0
20260509210548 15 129 0.0 3.2 0.00 0.13 0.13 77 1010.0
20260509210045 15 129 0.0 3.2 0.00 0.13 0.13 76 1009.9
20260509205542 15 129 1.6 4.8 0.00 0.13 0.13 79 1009.8
20260509205042 15 129 1.6 4.8 0.00 0.13 0.13 76 1009.8
20260509204542 15 149 0.0 3.2 0.00 0.13 0.13 76 1009.9
20260509204043 15 149 1.6 4.8 0.00 0.13 0.13 76 1010.0
20260509203540 15 149 1.6 6.4 0.00 0.13 0.13 77 1010.0
20260509203039 15 132 3.2 6.4 0.00 0.13 0.13 78 1010.0
20260509202533 15 135 1.6 6.4 0.00 0.13 0.13 78 1010.0
20260509202035 15 122 1.6 8.0 0.00 0.13 0.13 78 1010.1
20260509201536 15 141 1.6 8.0 0.00 0.13 0.13 78 1010.1
20260509200536 15 142 1.6 4.8 0.00 0.13 0.13 77 1010.2
20260509200031 15 120 1.6 3.2 0.00 0.13 0.13 77 1010.2
20260509195533 15 120 1.6 3.2 0.00 0.13 0.13 76 1010.2
20260509194532 16 119 1.6 8.0 0.00 0.13 0.13 78 1010.1
20260509194030 16 124 0.0 4.8 0.00 0.13 0.13 77 1010.3
20260509193530 16 126 0.0 3.2 0.00 0.13 0.13 80 1010.3
20260509193028 16 126 1.6 4.8 0.00 0.13 0.13 78 1010.5
20260509192529 16 126 1.6 4.8 0.00 0.13 0.13 79 1010.3
20260509191026 16 174 3.2 9.7 0.00 0.13 0.13 77 1010.3
20260509190530 16 345 3.2 9.7 0.00 0.13 0.13 77 1010.2
20260509190027 16 345 3.2 6.4 0.00 0.13 0.13 78 1010.3
20260509185528 16 117 1.6 6.4 0.00 0.13 0.13 79 1010.3
20260509185023 16 136 1.6 6.4 0.00 0.13 0.13 80 1010.2
20260509184523 15 124 1.6 6.4 0.00 0.13 0.13 82 1010.5
20260509184022 15 345 4.8 9.7 0.00 0.13 0.13 81 1010.7
20260509183022 15 129 3.2 8.0 0.00 0.13 0.13 81 1010.8
20260509182525 15 140 1.6 8.0 0.00 0.13 0.13 83 1010.9
20260509182020 15 157 1.6 8.0 0.00 0.13 0.13 82 1011.1
20260509180015 14 326 0.0 4.8 0.00 0.13 0.13 79 1011.8
20260509175516 14 326 0.0 4.8 0.00 0.13 0.13 77 1011.8
20260509175014 14 128 1.6 3.2 0.00 0.13 0.13 76 1011.6
20260509174513 14 128 1.6 3.2 0.00 0.13 0.13 76 1011.5
20260509174014 14 331 1.6 3.2 0.00 0.13 0.13 79 1011.5
20260509173513 15 331 1.6 3.2 0.00 0.13 0.13 82 1011.5
20260509173010 15 331 0.0 3.2 0.00 0.13 0.13 82 1011.5
20260509172510 14 331 1.6 3.2 0.00 0.13 0.13 81 1011.6
20260509172006 14 331 1.6 4.8 0.00 0.13 0.13 80 1011.6
20260509171508 14 330 1.6 4.8 0.00 0.13 0.13 79 1011.8
20260509171007 14 104 0.0 3.2 0.00 0.13 0.13 75 1011.8
20260509170506 14 104 1.6 3.2 0.00 0.13 0.13 75 1011.8
20260509170008 14 102 0.0 3.2 0.00 0.13 0.13 75 1011.9
20260509165506 14 102 0.0 3.2 0.00 0.13 0.13 76 1011.9
20260509165007 14 67 0.0 3.2 0.00 0.13 0.13 76 1011.9
20260509164507 14 67 0.0 3.2 0.00 0.13 0.13 78 1011.9
20260509163508 14 67 1.6 4.8 0.00 0.13 0.13 77 1012.0
20260509163008 14 125 1.6 4.8 0.00 0.13 0.13 76 1012.2
20260509162505 14 129 1.6 6.4 0.00 0.13 0.13 74 1011.9
20260509161504 14 221 3.2 11.3 0.00 0.13 0.13 80 1012.0
20260509161006 14 355 3.2 8.0 0.03 0.13 0.13 81 1011.9
20260509160006 13 336 3.2 11.3 0.03 0.13 0.13 82 1011.8
20260509155505 13 340 3.2 8.0 0.03 0.13 0.13 82 1011.8
20260509155006 13 329 3.2 8.0 0.03 0.13 0.13 85 1011.9
20260509154007 13 345 3.2 6.4 0.03 0.13 0.13 88 1012.2
20260509153506 12 345 1.6 4.8 0.03 0.13 0.13 92 1012.3
20260509153004 12 194 0.0 4.8 0.03 0.13 0.13 93 1012.2
20260509152507 12 186 0.0 0.0 0.05 0.13 0.13 94 1011.7
20260509152006 11 345 0.0 0.0 0.05 0.13 0.13 94 1011.5
20260509151505 11 186 0.0 0.0 0.05 0.13 0.13 93 1011.9
20260509151004 11 345 0.0 0.0 0.03 0.10 0.10 94 1012.3
20260509150506 11 345 0.0 0.0 0.05 0.10 0.10 93 1012.3
20260509150005 11 345 0.0 0.0 0.05 0.10 0.10 93 1012.4
20260509145507 11 345 0.0 0.0 0.08 0.10 0.10 93 1012.6
20260509145009 11 345 0.0 1.6 0.08 0.10 0.10 93 1012.7
20260509144521 11 186 0.0 1.6 0.08 0.10 0.10 92 1012.7
20260509144010 11 186 0.0 0.0 0.10 0.10 0.10 92 1012.6
20260509143508 11 345 0.0 0.0 0.10 0.10 0.10 91 1012.5
20260509143009 11 345 0.0 0.0 0.10 0.10 0.10 91 1012.6
20260509142511 11 345 0.0 0.0 0.08 0.08 0.08 90 1012.4
20260509142009 11 345 0.0 1.6 0.08 0.08 0.08 90 1012.5
20260509141508 11 345 1.6 4.8 0.08 0.08 0.08 89 1012.5
20260509141009 11 345 1.6 4.8 0.08 0.08 0.08 89 1012.4
20260509140509 11 310 1.6 4.8 0.05 0.05 0.05 88 1012.2
20260509140005 11 310 0.0 4.8 0.05 0.05 0.05 87 1012.0
20260509135513 12 150 0.0 3.2 0.03 0.03 0.03 86 1012.0
20260509134500 12 150 1.6 3.2 0.03 0.03 0.03 83 1011.9
20260509133958 12 150 1.6 3.2 0.00 0.00 0.00 81 1011.8
20260509133458 12 345 1.6 3.2 0.00 0.00 0.00 80 1011.9
20260509132957 12 345 1.6 4.8 0.00 0.00 0.00 79 1012.0
20260509132455 12 345 1.6 4.8 0.00 0.00 0.00 79 1011.9
20260509131452 12 345 1.6 4.8 0.00 0.00 0.00 78 1011.9
20260509130953 12 345 1.6 6.4 0.00 0.00 0.00 77 1011.8
20260509130452 12 345 3.2 6.4 0.00 0.00 0.00 77 1011.9
20260509125953 12 345 3.2 6.4 0.00 0.00 0.00 77 1011.8
20260509125452 12 345 1.6 6.4 0.00 0.00 0.00 77 1011.8
20260509124958 12 345 1.6 4.8 0.00 0.00 0.00 77 1011.8
20260509124457 12 345 1.6 4.8 0.00 0.00 0.00 77 1011.8
20260509123448 12 345 1.6 9.7 0.00 0.00 0.00 75 1011.8
20260509122944 12 345 1.6 6.4 0.00 0.00 0.00 76 1011.8
20260509121941 12 345 3.2 9.7 0.00 0.00 0.00 75 1011.9
20260509121441 12 345 3.2 9.7 0.00 0.00 0.00 75 1011.9
20260509120936 12 345 1.6 8.0 0.00 0.00 0.00 75 1011.9
20260509115434 12 345 3.2 9.7 0.00 0.00 0.00 75 1011.8
20260509114930 12 345 1.6 8.0 0.00 0.00 0.00 76 1011.7
20260509114433 12 128 1.6 4.8 0.00 0.00 0.00 76 1011.7
20260509113930 12 173 3.2 8.0 0.00 0.00 0.00 76 1011.6
20260509113430 11 345 3.2 8.0 0.00 0.00 0.00 77 1011.6
20260509112931 11 345 3.2 6.4 0.00 0.00 0.00 77 1011.5
20260509111426 11 73 1.6 4.8 0.00 0.00 0.00 76 1011.4
20260509110927 11 73 1.6 3.2 0.00 0.00 0.00 76 1011.4
20260509110418 11 76 0.0 3.2 0.00 0.00 0.00 75 1011.3
20260509105419 11 78 1.6 3.2 0.00 0.00 0.00 75 1011.2
20260509104919 11 78 1.6 4.8 0.00 0.00 0.00 75 1011.2
20260509104414 11 69 1.6 4.8 0.00 0.00 0.00 76 1011.1
20260509103915 11 73 0.0 3.2 0.00 0.00 0.00 75 1011.1
20260509103414 11 71 0.0 3.2 0.00 0.00 0.00 75 1011.1
20260509102913 11 345 1.6 4.8 0.00 0.00 0.00 74 1011.0
20260509102410 11 57 0.0 4.8 0.00 0.00 0.00 75 1011.1
20260509101918 11 118 0.0 3.2 0.00 0.00 0.00 75 1011.0
20260509095910 11 65 1.6 4.8 0.00 0.00 0.00 75 1011.0
20260509095410 11 65 1.6 3.2 0.00 0.00 0.00 75 1011.0
20260509094905 11 66 1.6 4.8 0.00 0.00 0.00 76 1010.9
20260509094406 11 63 0.0 4.8 0.00 0.00 0.00 75 1010.9
20260509093906 11 59 0.0 0.0 0.00 0.00 0.00 76 1010.9
20260509093405 11 83 0.0 0.0 0.00 0.00 0.00 76 1010.9
20260509092906 11 84 0.0 0.0 0.00 0.00 0.00 76 1010.9
20260509092404 11 88 0.0 1.6 0.00 0.00 0.00 76 1011.0
20260509091903 11 86 0.0 1.6 0.00 0.00 0.00 75 1011.1
20260509091404 11 86 0.0 3.2 0.00 0.00 0.00 75 1011.1
20260509090905 11 92 0.0 3.2 0.00 0.00 0.00 75 1011.1
20260509090402 11 79 1.6 6.4 0.00 0.00 0.00 75 1011.1
20260509085901 11 81 1.6 6.4 0.00 0.00 0.00 75 1011.1
20260509085402 11 73 1.6 4.8 0.00 0.00 0.00 75 1011.1
20260509084900 11 86 1.6 9.7 0.00 0.00 0.00 75 1011.2
20260509084357 11 65 1.6 9.7 0.00 0.00 0.00 75 1011.2
20260509083858 11 62 1.6 6.4 0.00 0.00 0.00 75 1011.3
20260509083356 11 81 1.6 9.7 0.00 0.00 0.00 75 1011.3
20260509082858 11 75 3.2 9.7 0.00 0.00 0.00 76 1011.4
20260509082355 11 90 3.2 9.7 0.00 0.00 0.00 75 1011.4
20260509081855 11 77 1.6 6.4 0.00 0.00 0.00 76 1011.3
20260509081356 11 78 1.6 6.4 0.00 0.00 0.00 76 1011.3
20260509080351 11 78 1.6 6.4 0.00 0.00 0.00 76 1011.5
20260509075853 11 85 3.2 6.4 0.00 0.00 0.00 77 1011.5
20260509075353 11 65 1.6 6.4 0.00 0.00 0.00 77 1011.5
20260509074353 11 50 3.2 6.4 0.00 0.00 0.00 78 1011.4
20260509073853 11 54 3.2 4.8 0.00 0.00 0.00 78 1011.4
20260509073348 11 46 3.2 6.4 0.00 0.00 0.00 78 1011.4
20260509072850 11 71 1.6 6.4 0.00 0.00 0.00 78 1011.5
20260509072348 11 76 1.6 4.8 0.00 0.00 0.00 78 1011.5
20260509071345 11 54 1.6 6.4 0.00 0.00 0.00 78 1011.6
20260509070845 11 64 1.6 6.4 0.00 0.00 0.00 79 1011.6
20260509070346 11 61 1.6 6.4 0.00 0.00 0.00 79 1011.6
20260509064844 11 75 3.2 8.0 0.00 0.00 0.00 79 1011.6
20260509064342 11 69 3.2 11.3 0.00 0.00 0.00 79 1011.5
20260509063842 11 75 3.2 11.3 0.00 0.00 0.00 79 1011.5
20260509062840 11 62 3.2 8.0 0.00 0.00 0.00 80 1011.5
20260509062341 11 92 4.8 8.0 0.00 0.00 0.00 80 1011.5
20260509061845 11 44 4.8 9.7 0.00 0.00 0.00 80 1011.4
20260509061342 11 55 3.2 9.7 0.00 0.00 0.00 80 1011.5
20260509060840 11 69 3.2 9.7 0.00 0.00 0.00 81 1011.6
20260509060341 11 56 3.2 9.7 0.00 0.00 0.00 81 1011.7
20260509055843 11 56 3.2 8.0 0.00 0.00 0.00 81 1011.8
20260509055341 11 65 3.2 8.0 0.00 0.00 0.00 82 1011.8
20260509054339 11 59 3.2 6.4 0.00 0.00 0.00 82 1011.9
20260509053838 11 57 3.2 6.4 0.00 0.00 0.00 82 1011.9
20260509053340 11 60 3.2 6.4 0.00 0.00 0.00 82 1012.0
20260509052837 11 56 3.2 6.4 0.00 0.00 0.00 82 1012.2
20260509052337 11 57 3.2 6.4 0.00 0.00 0.00 82 1012.3
20260509051836 11 61 1.6 4.8 0.00 0.00 0.00 82 1012.3